Weather History for Red Bluff, CA

Change the Weather History Date:

Friday, November 2, 2012

  Actual Average Record
Temperature  
Mean Temperature 57 °F -  
Max Temperature 68 °F 72 °F 86 °F (1949)
Min Temperature 46 °F 47 °F 35 °F (2003)
Degree Days  
Heating Degree Days 8    
Growing Degree Days 7 (Base 50)    
Moisture  
Dew Point 48 °F    
Average Humidity 73    
Maximum Humidity 93    
Minimum Humidity 34    
Precipitation  
Precipitation 0.00 in - - ()
Sea Level Pressure  
Sea Level Pressure 30.06 in    
Wind  
Wind Speed 5 mph (NNW)    
Max Wind Speed 10 mph    
Max Gust Speed -    
Visibility 10 miles    
Events      
Averages and records for this station are not official NWS values.
T = Trace of Precipitation, MM = Missing Value Source: NWS Daily Summary

Daily Weather History Graph

Daily Weather History Graph

Search for Another Location

Airport:

Trip Planner

Search our weather history database for the weather conditions in past years. The results will help you decide how hot, cold, wet, or windy it might be!

Date:

Astronomy

Nov. 02, 2012 Rise Set
Actual Time 7:40 AM PDT 6:04 PM PDT
Civil Twilight 7:11 AM PDT 6:32 PM PDT
Nautical Twilight 6:39 AM PDT 7:04 PM PDT
Astronomical Twilight 6:08 AM PDT 7:36 PM PDT
Moon 8:56 PM PDT (11/2) 11:04 AM PDT (11/2)
Length of Visible Light 11h 20m
Length of Day
10h 24m
Waning Gibbous, 86% of the Moon is Illuminated
Nov 2
Waning Gibbous
Nov 6
Last Quarter
Nov 13
New
Nov 20
First Quarter
Nov 28
Full

Hourly Weather History & Observations

Time (PDT) Temp. Dew Point Humidity Pressure Visibility Wind Dir Wind Speed Gust Speed Precip Events Conditions
12:54 AM 51.1 °F 48.0 °F 89% 30.06 in 10.0 mi NW 4.6 mph - N/A   Partly Cloudy
1:54 AM 48.9 °F 46.9 °F 93% 30.06 in 10.0 mi NNW 4.6 mph - N/A   Clear
2:54 AM 48.9 °F 46.9 °F 93% 30.07 in 10.0 mi WNW 4.6 mph - N/A   Clear
3:54 AM 48.0 °F 46.0 °F 93% 30.06 in 10.0 mi North 5.8 mph - N/A   Clear
4:54 AM 48.9 °F 46.9 °F 93% 30.06 in 10.0 mi NW 5.8 mph - N/A   Clear
5:54 AM 50.0 °F 46.9 °F 89% 30.06 in 10.0 mi NNW 6.9 mph - N/A   Clear
6:54 AM 48.9 °F 46.0 °F 90% 30.06 in 10.0 mi NW 8.1 mph - N/A   Clear
7:54 AM 46.9 °F 45.0 °F 93% 30.07 in 10.0 mi North 4.6 mph - N/A   Clear
8:54 AM 51.1 °F 48.0 °F 89% 30.09 in 10.0 mi NNW 4.6 mph - N/A   Clear
9:54 AM 55.0 °F 48.9 °F 80% 30.09 in 10.0 mi North 6.9 mph - N/A   Clear
10:54 AM 61.0 °F 48.9 °F 64% 30.08 in 10.0 mi North 10.4 mph - N/A   Clear
11:54 AM 63.0 °F 48.0 °F 58% 30.07 in 10.0 mi NNW 6.9 mph - N/A   Clear
12:54 PM 66.0 °F 48.0 °F 52% 30.06 in 10.0 mi NW 5.8 mph - N/A   Clear
1:54 PM 66.9 °F 48.0 °F 51% 30.04 in 10.0 mi North 5.8 mph - N/A   Clear
2:54 PM 68.0 °F 46.9 °F 47% 30.02 in 10.0 mi NNW 4.6 mph - N/A   Clear
3:54 PM 68.0 °F 46.0 °F 45% 30.02 in 10.0 mi Calm Calm - N/A   Clear
4:54 PM 66.9 °F 45.0 °F 45% 30.02 in 10.0 mi Calm Calm - N/A   Clear
5:54 PM 64.0 °F 48.0 °F 56% 30.02 in 10.0 mi Calm Calm - N/A   Clear
6:54 PM 63.0 °F 50.0 °F 63% 30.04 in 10.0 mi SW 3.5 mph - N/A   Clear
7:54 PM 59.0 °F 51.1 °F 75% 30.04 in 10.0 mi Calm Calm - N/A   Clear
8:54 PM 57.9 °F 52.0 °F 81% 30.05 in 10.0 mi Calm Calm - N/A   Partly Cloudy
9:54 PM 57.9 °F 51.1 °F 78% 30.06 in 10.0 mi Calm Calm - N/A   Mostly Cloudy
10:54 PM 57.0 °F 51.1 °F 81% 30.06 in 10.0 mi Calm Calm - N/A   Clear
11:54 PM 53.6 °F 50.0 °F 88% 30.07 in 10.0 mi WNW 4.6 mph - N/A   Clear